Regional Weather Roundup
Issued by NWS State College, PA

Home | Current Version | Previous Version | Text Only | Print | Product List | Glossary On
Versions: 1 2 3 4 5 6 7 8 9 10 11 12 13 14 15 16 17 18 19 20 21 22 23 24 25 26 27 28 29 30 31 32 33 34 35 36 37 38 39 40 41 42 43 44 45 46 47 48 49 50
000
ASUS41 KCTP 050703
RWRCTP

REGIONAL WEATHER ROUNDUP
NATIONAL WEATHER SERVICE STATE COLLEGE PA
300 AM EDT TUE MAY 05 2015

Note: "fair" indicates few or no clouds below 12,000 feet with no
significant weather and/or obstructions to visibility.

* = STATION THAT DOES NOT REPORT PRECIPITATION /E.G. RAIN...SNOW...ETC/
    THUNDER OR FOG.

PAZ002>004-007>009-013>016-020>023-029>032-050800-
WESTERN PENNSYLVANIA

CITY           SKY/WX    TMP DP  RH WIND       PRES   REMARKS
ERIE           MOCLDY    53  52  96 CALM      30.21S FOG
MEADVILLE      PTCLDY    57  55  93 S5        30.22S FOG
FRANKLIN*      CLOUDY    59  54  82 W7        30.23F
NEW CASTLE     FOG       55  55 100 CALM      30.23S VSB<1/4
BEAVER COUNTY  NOT AVBL
BUTLER*          N/A     54  54 100 CALM      30.24F VSB<1/4
PITTSBURGH INT MOCLDY    62  59  90 CALM      30.21F
PITTSBURGH     CLOUDY    63  55  75 CALM      30.22S
INDIANA*       CLOUDY    63  57  82 CALM      30.27S
LATROBE        CLOUDY    63  61  94 CALM      30.25S
WASHINGTON CO* CLOUDY    61  57  88 CALM      30.24S
$$

PAZ004>006-010>012-017>019-024>028-033>037-041-042-045-046-049>053-050800-
CENTRAL PENNSYLVANIA

CITY           SKY/WX    TMP DP  RH WIND       PRES   REMARKS
BRADFORD       CLOUDY    59  55  87 NW7       30.23S
DUBOIS         PTCLDY    60  56  86 W3        30.22F
CLEARFIELD     MOCLDY    62  55  77 CALM      30.22F
JOHNSTOWN      LGT RAIN  61  53  75 SW5       30.24F
ALTOONA        CLOUDY    65  53  65 CALM      30.23F
STATE COLLEGE  MOCLDY    65  55  68 W5        30.21S
WILLIAMSPORT   CLOUDY    69  52  54 W6        30.16R
SELINSGROVE    CLOUDY    63  56  78 CALM      30.18R
FT INDIANTOWN  PTCLDY    56  49  78 CALM      30.17S
CAPITAL CITY   PTCLDY    65  50  58 W5        30.17S
HARRISBURG     MOCLDY    63  52  67 N5        30.16F
YORK           CLEAR     63  52  67 NW7       30.18R
$$

PAZ038>040-043-044-047-048-054-055-060>062-067>071-050800-
EASTERN PENNSYLVANIA

CITY           SKY/WX    TMP DP  RH WIND       PRES   REMARKS
SCRANTON       CLOUDY    71  47  42 N7        30.17R
MOUNT POCONO   PTCLDY    62  45  53 W7        30.19R
ALLENTOWN      CLEAR     57  48  72 CALM      30.16S
QUAKERTOWN*    SUNNY     64  50  59 SW5       30.17F
READING        CLEAR     66  50  56 SW6       30.16S
LANCASTER      CLEAR     58  50  75 CALM      30.17R
COATESVILLE    SUNNY     64  54  68 SW5       30.18F
POTTSTOWN      CLEAR     63  51  65 SW3       30.18S
BLUE BELL      CLEAR     66  52  59 SW3       30.16F
DOYLESTOWN     CLEAR     64  49  57 S6        30.16F
WILLOW GROVE   NOT AVBL
NORTH PHILA    CLEAR     68  46  45 SW6       30.18F
PHILADELPHIA   PTCLDY    64  49  57 S7        30.18F
$$



USA.gov is the U.S. government's official web portal to all federal, state and local government web resources and services.